Find OPS 2222

NORAD ID: 3334 Int'l Des: 1968-063 Owner: NRO/SAFSP Country: US operational
HEO

現在のビュー

3D地球を読み込み中...

OPS 2222について

説明を読み込み中...

次回通過

Passes for default location (London). Set your location on the main map for personalized predictions.

高度履歴

Loading altitude history...

軌道要素

1 3334U 68063A 26149.28258801 -.00000310 00000-0 00000+0 0 9996
2 3334 5.9649 282.2787 0897379 231.4371 147.5668 0.99255446 25949
Epoch: May 29, 2026 • Age: 20 hours

現在のステータス

高度 36435.8 km
速度 3.04 km/s
衛星直下点 -2.81°S, 40.09°W
タイプ other

Most Searched